[[{"header":{"parameterUnit":"m.s-1","parameterCategory":1,"la1":30.2991,"la2":30.254,"lo1":-89.0895,"lo2":-89.0444,"dy":0.0017,"dx":0.0017,"nx":28,"ny":28,"refTime":"2025-03-17T03:00:00:Z","depth":0,"parameterNumber":2,"parameterNumberName":"U-component_of_WINDS"},"data":[0,0,0,0,0,0,0,0,0,0,0,0,0,0,0,0,0,0,0,0,0,0,0,0,0,0,0,0,0,0,0,0,0,0,0,0,0,0,0,0,0,0,0,0,0,0,0,0,0,0,0,0,0,0,0,0,0,0,-0.1681,-0.1681,0,-0.1678,-0.1678,-0.1678,-0.1683,-0.1683,-0.1683,-0.1684,-0.168,-0.1679,-0.1679,0,0,0,0,0,0,0,0,0,0,0,0,0,-0.1693,-0.1692,-0.1681,-0.1681,-0.1681,-0.1678,-0.1678,-0.1678,-0.1683,-0.1683,-0.1683,-0.1684,-0.168,-0.1679,-0.1679,0,0,0,0,0,0,0,0,0,0,0,0,0,-0.1688,-0.1692,-0.1681,-0.1684,-0.1684,-0.1678,-0.1678,-0.1678,-0.1683,-0.1683,-0.1683,-0.1684,-0.168,-0.168,-0.1679,-0.1671,0,0,-0.1678,-0.1678,0,0,0,0,0,0,0,0,-0.1688,-0.1688,-0.1683,-0.1683,-0.1684,-0.1681,-0.168,-0.1676,-0.1683,-0.1683,-0.1684,-0.1684,-0.168,-0.168,-0.1678,-0.1671,-0.1671,-0.1678,-0.1678,-0.1677,-0.1677,0,0,0,0,0,0,0,-0.1689,-0.1688,-0.168,-0.1683,-0.1683,-0.1685,-0.1684,-0.168,-0.168,-0.1683,-0.1684,-0.1683,-0.168,-0.1679,-0.1678,-0.1671,-0.1678,-0.1677,-0.1677,-0.1677,-0.1657,-0.1657,0,0,0,0,0,0,-0.1689,-0.1688,-0.168,-0.168,-0.1687,-0.1684,-0.1684,-0.1682,-0.168,-0.168,-0.1683,-0.1683,-0.1679,-0.1679,-0.1678,-0.1669,-0.1677,-0.1677,-0.1677,-0.1657,-0.1657,-0.1657,0,0,0,0,0,0,-0.1689,-0.1688,-0.168,-0.1684,-0.1683,-0.1684,-0.1681,-0.1681,-0.168,-0.168,-0.168,-0.1681,-0.1679,-0.1679,-0.1673,-0.1669,-0.1677,-0.1676,-0.1658,-0.1657,-0.1657,-0.1651,0,0,0,0,0,0,-0.1689,-0.1688,-0.1685,-0.1684,-0.1683,-0.1675,-0.1681,-0.1681,-0.1679,-0.168,-0.1679,-0.1679,-0.168,-0.1674,-0.1673,-0.1669,-0.1676,-0.1658,-0.1658,-0.1657,-0.1651,-0.165,-0.1649,0,0,0,0,0,-0.169,-0.1683,-0.1685,-0.1684,-0.1679,-0.1675,-0.1674,-0.1676,-0.1679,-0.1676,-0.1676,-0.1679,-0.167,-0.1673,-0.1672,-0.1668,-0.1658,-0.1658,-0.1657,-0.1652,-0.165,-0.1649,0,0,0,0,0,0,-0.1684,-0.1683,-0.1685,-0.1678,-0.1677,-0.1676,-0.1672,-0.1674,-0.1672,-0.1672,-0.1674,-0.1674,-0.1668,-0.1667,-0.1671,-0.166,-0.1664,-0.1664,-0.1661,-0.1659,-0.1658,-0.1659,-0.1676,0,0,0,0,0,-0.1682,-0.1678,-0.1678,-0.1672,-0.1671,-0.1672,-0.167,-0.1671,-0.167,-0.1669,-0.1668,-0.1667,-0.1664,-0.1661,-0.1658,-0.1651,-0.1651,-0.1648,-0.1647,-0.1646,-0.1645,-0.1641,-0.164,-0.1655,-0.1655,-0.1655,0,0,-0.1677,-0.1677,-0.1674,-0.1671,-0.167,-0.1666,-0.1671,-0.1667,-0.1664,-0.1668,-0.1663,-0.1662,-0.1661,-0.1654,-0.1651,-0.1653,-0.1641,-0.1645,-0.1644,-0.1644,-0.164,-0.1639,-0.1638,-0.1654,-0.1654,-0.1654,0,0,-0.1668,-0.1667,-0.1662,-0.166,-0.1659,-0.1659,-0.1658,-0.1657,-0.1657,-0.1652,-0.1655,-0.1651,-0.1646,-0.1645,-0.1643,-0.1633,-0.1636,-0.1632,-0.1627,-0.1623,-0.1622,-0.1621,-0.1618,-0.1616,-0.1631,-0.1631,-0.1631,0,-0.1662,-0.1657,-0.1659,-0.1655,-0.1653,-0.1656,-0.1651,-0.165,-0.1648,-0.1647,-0.1649,-0.1642,-0.1641,-0.1635,-0.1632,-0.1631,-0.163,-0.1632,-0.1622,-0.1621,-0.162,-0.1617,-0.1616,-0.1631,-0.1631,-0.1631,-0.1631,0,-0.1651,-0.1647,-0.1643,-0.1641,-0.1639,-0.1634,-0.1635,-0.1633,-0.1635,-0.1635,-0.1629,-0.1628,-0.1625,-0.1624,-0.1625,-0.1618,-0.1619,-0.1622,-0.1626,-0.1618,-0.1615,-0.1614,-0.163,-0.1631,-0.1631,-0.1631,0,0,-0.1637,-0.1636,-0.1635,-0.1634,-0.1632,-0.163,-0.1625,-0.1622,-0.1621,-0.1619,-0.1615,-0.161,-0.1613,-0.1611,-0.1612,-0.1609,-0.1602,-0.1612,-0.1612,-0.1611,-0.1594,-0.1592,-0.159,-0.1603,-0.1603,-0.1603,-0.1594,0,-0.1628,-0.162,-0.1622,-0.1615,-0.1611,-0.1615,-0.1611,-0.161,-0.161,-0.1607,-0.1607,-0.1604,-0.1607,-0.1606,-0.1603,-0.1603,-0.1598,-0.1604,-0.16,-0.16,-0.1601,-0.1589,-0.1587,-0.1578,-0.1593,-0.1592,-0.1592,0,-0.1616,-0.1614,-0.1606,-0.1606,-0.1604,-0.1601,-0.1599,-0.1596,-0.1595,-0.1595,-0.1593,-0.1595,-0.1591,-0.1595,-0.1589,-0.1593,-0.1591,-0.1591,-0.1591,-0.1591,-0.1596,-0.1589,-0.1576,-0.1575,-0.159,-0.1591,-0.1591,0,-0.1607,-0.1602,-0.1597,-0.1596,-0.1595,-0.1593,-0.1593,-0.1591,-0.159,-0.1588,-0.1587,-0.1584,-0.1583,-0.1581,-0.1582,-0.1585,-0.1576,-0.158,-0.1576,-0.1576,-0.1574,-0.1574,-0.1561,-0.1573,-0.1573,-0.1573,-0.1573,0,-0.1597,-0.1592,-0.1594,-0.159,-0.1585,-0.1587,-0.1582,-0.1582,-0.1581,-0.1578,-0.158,-0.1578,-0.1579,-0.1576,-0.1577,-0.1572,-0.1571,-0.1572,-0.1572,-0.1572,-0.1572,-0.1571,-0.1571,-0.1572,-0.1572,-0.1572,-0.1572,0,-0.1586,-0.1587,-0.1582,-0.1581,-0.1581,-0.1577,-0.1577,-0.1574,-0.1575,-0.1571,-0.157,-0.157,-0.1567,-0.1568,-0.1565,-0.1565,-0.1559,-0.156,-0.156,-0.156,-0.1556,-0.1556,-0.1542,-0.154,-0.1553,-0.1553,-0.1552,0,-0.1579,-0.1576,-0.1575,-0.1573,-0.1573,-0.157,-0.1568,-0.157,-0.1568,-0.1566,-0.1564,-0.1561,-0.1559,-0.1554,-0.1554,-0.1551,-0.1552,-0.1547,-0.1552,-0.1551,-0.1552,-0.1553,-0.1552,-0.1546,-0.1546,-0.1546,-0.1546,0,-0.1568,-0.1568,-0.1566,-0.1564,-0.1562,-0.156,-0.1559,-0.1557,-0.1558,-0.1556,-0.1553,-0.1552,-0.1548,-0.1545,-0.1543,-0.1542,-0.1544,-0.1544,-0.1543,-0.1543,-0.1543,-0.1543,-0.1558,-0.1545,-0.1545,-0.1545,-0.1545,-0.1545,-0.1559,-0.1556,-0.1555,-0.1553,-0.1552,-0.155,-0.1548,-0.1548,-0.1546,-0.1543,-0.1544,-0.1541,-0.1539,-0.1537,-0.1536,-0.1533,-0.1535,-0.1533,-0.1533,-0.1532,-0.1532,-0.1543,-0.1532,-0.1532,-0.1532,-0.1532,-0.1532,0,-0.1548,-0.1547,-0.1545,-0.1543,-0.1541,-0.1543,-0.1542,-0.154,-0.1537,-0.1535,-0.1533,-0.153,-0.1527,-0.1527,-0.1525,-0.1522,-0.1523,-0.1522,-0.1522,-0.1522,-0.153,-0.1532,-0.1521,-0.1521,-0.1521,-0.1521,-0.1521,-0.1521,-0.1541,-0.1537,-0.1538,-0.1533,-0.1532,-0.1529,-0.1528,-0.1527,-0.1526,-0.1522,-0.152,-0.152,-0.1519,-0.1517,-0.1515,-0.1515,-0.1514,-0.1512,-0.1512,-0.152,-0.1521,-0.1522,-0.1524,-0.1511,-0.1511,-0.1504,-0.1504,-0.1504]},{"header":{"parameterUnit":"m.s-1","parameterCategory":1,"la1":30.2991,"la2":30.254,"lo1":-89.0895,"lo2":-89.0444,"dy":0.0017,"dx":0.0017,"nx":28,"ny":28,"refTime":"2025-03-17T03:00:00:Z","depth":0,"parameterNumber":3,"parameterNumberName":"V-component_of_WINDS"},"data":[0,0,0,0,0,0,0,0,0,0,0,0,0,0,0,0,0,0,0,0,0,0,0,0,0,0,0,0,0,0,0,0,0,0,0,0,0,0,0,0,0,0,0,0,0,0,0,0,0,0,0,0,0,0,0,0,0,0,-4.9107,-4.9108,0,-4.9265,-4.9267,-4.9269,-4.9272,-4.927,-4.9268,-4.9266,-4.9427,-4.9433,-4.9439,0,0,0,0,0,0,0,0,0,0,0,0,0,-4.8807,-4.8812,-4.9107,-4.9109,-4.9111,-4.9265,-4.9267,-4.9269,-4.9273,-4.927,-4.9268,-4.9266,-4.9425,-4.9432,-4.944,0,0,0,0,0,0,0,0,0,0,0,0,0,-4.8948,-4.8814,-4.9106,-4.9131,-4.9135,-4.9265,-4.9267,-4.927,-4.9273,-4.927,-4.9267,-4.9264,-4.9423,-4.9432,-4.9441,-4.9556,0,0,-4.9469,-4.9473,0,0,0,0,0,0,0,0,-4.894,-4.8959,-4.9125,-4.9129,-4.9134,-4.9246,-4.922,-4.9366,-4.9274,-4.922,-4.9266,-4.9263,-4.9369,-4.9382,-4.9419,-4.9564,-4.9571,-4.9469,-4.9475,-4.9479,-4.9482,0,0,0,0,0,0,0,-4.893,-4.8952,-4.9169,-4.9128,-4.9133,-4.9134,-4.9151,-4.9248,-4.9309,-4.9225,-4.9225,-4.9244,-4.9371,-4.941,-4.9422,-4.9573,-4.9469,-4.9477,-4.9483,-4.9487,-4.9825,-4.9828,0,0,0,0,0,0,-4.8916,-4.8944,-4.9164,-4.9174,-4.9028,-4.9142,-4.9161,-4.9213,-4.9308,-4.932,-4.9247,-4.9244,-4.9396,-4.9412,-4.9428,-4.9573,-4.9479,-4.9487,-4.9493,-4.9821,-4.9825,-4.9829,0,0,0,0,0,0,-4.8909,-4.8935,-4.9158,-4.906,-4.9088,-4.915,-4.9209,-4.9218,-4.9257,-4.9325,-4.9336,-4.9275,-4.9394,-4.9415,-4.9525,-4.9578,-4.9492,-4.95,-4.9817,-4.9822,-4.9827,-4.9861,0,0,0,0,0,0,-4.8901,-4.8933,-4.8977,-4.906,-4.9093,-4.9253,-4.9212,-4.9223,-4.9273,-4.9271,-4.9355,-4.9366,-4.9393,-4.9512,-4.9534,-4.9589,-4.9507,-4.9813,-4.9819,-4.9826,-4.9855,-4.9866,-4.9876,0,0,0,0,0,-4.889,-4.8979,-4.898,-4.9006,-4.915,-4.9255,-4.9274,-4.9305,-4.9277,-4.9322,-4.9367,-4.9363,-4.9568,-4.9523,-4.9549,-4.9607,-4.9809,-4.9818,-4.9825,-4.985,-4.9864,-4.9876,0,0,0,0,0,0,-4.8899,-4.899,-4.8992,-4.9111,-4.9176,-4.9256,-4.9314,-4.9318,-4.9391,-4.9386,-4.942,-4.9439,-4.955,-4.9589,-4.9537,-4.9726,-4.9686,-4.9699,-4.9696,-4.971,-4.972,-4.9709,-4.9515,0,0,0,0,0,-4.8915,-4.8994,-4.9069,-4.9166,-4.9199,-4.9251,-4.9298,-4.9316,-4.9385,-4.9412,-4.9464,-4.953,-4.961,-4.9661,-4.9738,-4.986,-4.988,-4.9913,-4.9924,-4.9932,-4.9944,-5.0014,-5.0031,-4.9855,-4.9855,-4.9855,0,0,-4.8949,-4.9008,-4.9056,-4.917,-4.9222,-4.9304,-4.9274,-4.936,-4.9421,-4.9425,-4.9533,-4.9574,-4.965,-4.9767,-4.9821,-4.9803,-4.9997,-4.9942,-4.9948,-4.9955,-5.0024,-5.0041,-5.0055,-4.986,-4.9859,-4.9858,0,0,-4.9052,-4.9104,-4.9193,-4.9247,-4.9327,-4.9362,-4.9383,-4.9464,-4.9491,-4.9601,-4.9606,-4.9679,-4.9814,-4.987,-4.9915,-5.0043,-5.0043,-5.0066,-5.0122,-5.019,-5.0204,-5.0216,-5.0265,-5.0281,-5.0077,-5.0078,-5.0078,0,-4.9084,-4.9207,-4.9238,-4.9326,-4.9377,-4.9385,-4.9476,-4.9526,-4.9627,-4.9663,-4.9641,-4.9814,-4.9866,-4.9998,-5.0029,-5.0065,-5.0092,-5.0058,-5.0199,-5.0212,-5.0224,-5.0271,-5.0289,-5.008,-5.008,-5.008,-5.0079,0,-4.9243,-4.9328,-4.939,-4.949,-4.9548,-4.9636,-4.9682,-4.9736,-4.975,-4.9787,-4.99,-4.9962,-5.0053,-5.0086,-5.0099,-5.0221,-5.0208,-5.0192,-5.0153,-5.0243,-5.0288,-5.0305,-5.0084,-5.0083,-5.0082,-5.0082,0,0,-4.9356,-4.9474,-4.9496,-4.9543,-4.9633,-4.97,-4.979,-4.988,-4.9928,-4.9997,-5.0075,-5.0191,-5.0179,-5.0231,-5.025,-5.031,-5.0411,-5.0288,-5.029,-5.0311,-5.0552,-5.0565,-5.0585,-5.0411,-5.0414,-5.0417,-5.0547,0,-4.9471,-4.9632,-4.9664,-4.9804,-4.9885,-4.9895,-4.9974,-5.0038,-5.0075,-5.0149,-5.019,-5.0273,-5.0248,-5.0281,-5.034,-5.0386,-5.046,-5.0376,-5.0485,-5.0488,-5.0468,-5.0608,-5.0621,-5.0741,-5.0564,-5.0567,-5.0569,0,-4.9627,-4.9703,-4.9852,-4.9934,-4.9969,-5.0039,-5.0127,-5.0197,-5.0271,-5.0294,-5.0353,-5.0367,-5.0462,-5.0417,-5.055,-5.0492,-5.0538,-5.0568,-5.0573,-5.0586,-5.0536,-5.0627,-5.0779,-5.0798,-5.0596,-5.0594,-5.0592,0,-4.9699,-4.9838,-4.9945,-4.9984,-5.0083,-5.0133,-5.0176,-5.0247,-5.03,-5.0376,-5.0412,-5.0497,-5.0544,-5.061,-5.0647,-5.0611,-5.0778,-5.0735,-5.0801,-5.0801,-5.0837,-5.0835,-5.1001,-5.0863,-5.0863,-5.0862,-5.0862,0,-4.9825,-4.9916,-4.9979,-5.0046,-5.0149,-5.0185,-5.0286,-5.0328,-5.0392,-5.0468,-5.048,-5.0551,-5.0594,-5.0671,-5.0701,-5.0808,-5.0828,-5.085,-5.0858,-5.0851,-5.0849,-5.0883,-5.0877,-5.0867,-5.0866,-5.0865,-5.0864,0,-4.9923,-4.9968,-5.0087,-5.0171,-5.0195,-5.0267,-5.034,-5.0405,-5.0443,-5.0539,-5.0563,-5.0623,-5.0715,-5.0758,-5.087,-5.089,-5.1013,-5.1013,-5.0989,-5.0992,-5.1056,-5.1051,-5.1253,-5.1282,-5.1122,-5.1123,-5.1124,0,-5.0002,-5.0073,-5.0165,-5.0218,-5.0263,-5.0346,-5.0402,-5.044,-5.0497,-5.0588,-5.0643,-5.0736,-5.0812,-5.0959,-5.1012,-5.1099,-5.1103,-5.1168,-5.1117,-5.1109,-5.1108,-5.1104,-5.1113,-5.1178,-5.118,-5.1181,-5.1182,0,-5.0138,-5.0158,-5.0237,-5.0327,-5.0393,-5.0464,-5.0534,-5.0576,-5.0626,-5.0689,-5.0784,-5.0844,-5.0961,-5.1053,-5.1145,-5.1189,-5.1196,-5.1198,-5.1218,-5.1213,-5.1198,-5.121,-5.1017,-5.1193,-5.1192,-5.1191,-5.1191,-5.119,-5.0231,-5.0296,-5.0372,-5.0461,-5.0518,-5.0584,-5.0651,-5.0699,-5.0779,-5.0878,-5.0895,-5.0997,-5.1072,-5.1195,-5.1243,-5.1324,-5.1309,-5.1338,-5.1345,-5.1353,-5.1358,-5.1183,-5.134,-5.134,-5.134,-5.1339,-5.1339,0,-5.037,-5.0421,-5.0502,-5.0601,-5.0672,-5.0672,-5.075,-5.0809,-5.0899,-5.0968,-5.1044,-5.1155,-5.1245,-5.1307,-5.1399,-5.1452,-5.1457,-5.1475,-5.1473,-5.1484,-5.1364,-5.1339,-5.1469,-5.1469,-5.1469,-5.1469,-5.1469,-5.1469,-5.0451,-5.0562,-5.0591,-5.0731,-5.0781,-5.0882,-5.0927,-5.0988,-5.1044,-5.1168,-5.1244,-5.1283,-5.1351,-5.1448,-5.1532,-5.1548,-5.1582,-5.1601,-5.1617,-5.1505,-5.1491,-5.1478,-5.1455,-5.1608,-5.1608,-5.173,-5.1731,-5.1732]}]]